Weather History for Appleton, MN

Change the Weather History Date:

Friday, December 27, 2013

  Actual Average Record
Temperature  
Mean Temperature 32 °F -  
Max Temperature 41 °F 20 °F 46 °F (2003)
Min Temperature 24 °F 6 °F -7 °F (1996)
Degree Days  
Heating Degree Days 32    
Moisture  
Dew Point 28 °F    
Average Humidity 83    
Maximum Humidity 100    
Minimum Humidity 65    
Precipitation  
Precipitation 0.00 in - - ()
Sea Level Pressure  
Sea Level Pressure 29.97 in    
Wind  
Wind Speed 8 mph (SW)    
Max Wind Speed 18 mph    
Max Gust Speed 20 mph    
Visibility 10 miles    
Events      
Averages and records for this station are not official NWS values.
T = Trace of Precipitation, MM = Missing Value Source: NWS Daily Summary

Daily Weather History Graph

Daily Weather History Graph

Search for Another Location

Airport:

Trip Planner

Search our weather history database for the weather conditions in past years. The results will help you decide how hot, cold, wet, or windy it might be!

Date:

Astronomy

Dec. 27, 2013 Rise Set
Actual Time 8:02 AM CST 4:48 PM CST
Civil Twilight 7:28 AM CST 5:22 PM CST
Nautical Twilight 6:51 AM CST 5:59 PM CST
Astronomical Twilight 6:15 AM CST 6:35 PM CST
Moon 2:25 AM CST (12/27) 1:07 PM CST (12/27)
Length of Visible Light 9h 53m
Length of Day
8h 45m
Waning Crescent, 28% of the Moon is Illuminated
Dec 27
Waning Crescent
Jan 1
New
Jan 7
First Quarter
Jan 15
Full
Jan 23
Last Quarter

Hourly Weather History & Observations

Time (CST) Temp. Windchill Dew Point Humidity Pressure Visibility Wind Dir Wind Speed Gust Speed Precip Events Conditions
12:13 AM 30.2 °F 26.7 °F 26.6 °F 86% 30.12 in 10.0 mi SSW 3.5 mph - N/A   Overcast
12:34 AM 30.2 °F 23.4 °F 26.6 °F 86% 30.12 in 10.0 mi SW 6.9 mph - N/A   Overcast
12:54 AM 30.2 °F 23.4 °F 26.6 °F 86% 30.11 in 10.0 mi SW 6.9 mph - N/A   Overcast
1:14 AM 30.2 °F 21.9 °F 26.6 °F 86% 30.10 in 10.0 mi SW 9.2 mph - N/A   Overcast
1:33 AM 30.2 °F 21.9 °F 26.6 °F 86% 30.10 in 10.0 mi SW 9.2 mph - N/A   Overcast
1:53 AM 30.2 °F 23.4 °F 26.6 °F 86% 30.09 in 10.0 mi SSW 6.9 mph - N/A   Mostly Cloudy
2:13 AM 30.2 °F 23.4 °F 26.6 °F 86% 30.08 in 10.0 mi SSW 6.9 mph - N/A   Scattered Clouds
2:34 AM 28.4 °F 20.4 °F 24.8 °F 86% 30.08 in 10.0 mi South 8.1 mph - N/A   Clear
2:53 AM 28.4 °F 21.2 °F 24.8 °F 86% 30.07 in 10.0 mi South 6.9 mph - N/A   Clear
3:13 AM 28.4 °F 20.4 °F 24.8 °F 86% 30.07 in 10.0 mi South 8.1 mph - N/A   Clear
3:33 AM 26.6 °F 17.5 °F 24.8 °F 93% 30.06 in 10.0 mi South 9.2 mph - N/A   Clear
3:53 AM 26.6 °F 17.5 °F 24.8 °F 93% 30.04 in 10.0 mi South 9.2 mph - N/A   Clear
4:14 AM 26.6 °F 18.2 °F 23.0 °F 86% 30.03 in 10.0 mi South 8.1 mph - N/A   Clear
4:33 AM 24.8 °F 16.9 °F 21.2 °F 86% 30.03 in 10.0 mi South 6.9 mph - N/A   Clear
4:53 AM 24.8 °F 16.1 °F 21.2 °F 86% 30.03 in 10.0 mi South 8.1 mph - N/A   Clear
5:14 AM 24.8 °F 16.1 °F 21.2 °F 86% 30.01 in 10.0 mi South 8.1 mph - N/A   Clear
5:33 AM 24.8 °F 16.9 °F 21.2 °F 86% 30.00 in 10.0 mi South 6.9 mph - N/A   Clear
5:53 AM 24.8 °F 16.1 °F 21.2 °F 86% 29.98 in 10.0 mi South 8.1 mph - N/A   Clear
6:13 AM 24.8 °F 16.1 °F 21.2 °F 86% 29.96 in 10.0 mi South 8.1 mph - N/A   Clear
6:33 AM 26.6 °F 18.2 °F 23.0 °F 86% 29.95 in 10.0 mi South 8.1 mph - N/A   Scattered Clouds
6:53 AM 28.4 °F 24.6 °F 24.8 °F 86% 29.95 in 10.0 mi South 3.5 mph - N/A   Scattered Clouds
7:13 AM 26.6 °F 21.2 °F 24.8 °F 93% 29.95 in 10.0 mi South 4.6 mph - N/A   Clear
7:33 AM 30.2 °F 22.6 °F 26.6 °F 86% 29.93 in 10.0 mi South 8.1 mph - N/A   Mostly Cloudy
7:54 AM 33.8 °F 24.8 °F 26.6 °F 75% 29.92 in 10.0 mi South 12.7 mph - N/A   Overcast
8:13 AM 33.8 °F 26.4 °F 26.6 °F 75% 29.91 in 10.0 mi South 9.2 mph - N/A   Overcast
8:33 AM 33.8 °F 26.4 °F 26.6 °F 75% 29.91 in 10.0 mi South 9.2 mph - N/A   Overcast
8:54 AM 33.8 °F 27.0 °F 26.6 °F 75% 29.91 in 10.0 mi SSW 8.1 mph - N/A   Scattered Clouds
9:14 AM 33.8 °F 25.8 °F 28.4 °F 81% 29.92 in 10.0 mi SW 10.4 mph - N/A   Scattered Clouds
9:33 AM 37.4 °F 30.3 °F 28.4 °F 70% 29.90 in 10.0 mi SW 10.4 mph 19.6 mph N/A   Scattered Clouds
9:54 AM 37.4 °F 28.5 °F 26.6 °F 65% 29.90 in 10.0 mi SW 15.0 mph - N/A   Clear
10:13 AM 37.4 °F 28.5 °F 28.4 °F 70% 29.91 in 10.0 mi WSW 15.0 mph - N/A   Clear
10:34 AM 37.4 °F 27.5 °F 28.4 °F 70% 29.91 in 10.0 mi WSW 18.4 mph - N/A   Clear
10:53 AM 39.2 °F 30.8 °F 28.4 °F 65% 29.92 in 10.0 mi West 15.0 mph - N/A   Clear
11:13 AM 39.2 °F 30.8 °F 28.4 °F 65% 29.92 in 10.0 mi West 15.0 mph - N/A   Clear
11:33 AM 39.2 °F 31.2 °F 30.2 °F 70% 29.91 in 10.0 mi West 13.8 mph - N/A   Clear
11:53 AM 39.2 °F 31.6 °F 30.2 °F 70% 29.91 in 10.0 mi West 12.7 mph - N/A   Clear
12:13 PM 41.0 °F 33.1 °F 30.2 °F 65% 29.91 in 10.0 mi West 15.0 mph - N/A   Clear
12:33 PM 41.0 °F 32.5 °F 30.2 °F 65% 29.91 in 10.0 mi West 17.3 mph - N/A   Clear
12:53 PM 41.0 °F 33.5 °F 30.2 °F 65% 29.91 in 10.0 mi West 13.8 mph - N/A   Clear
1:13 PM 39.2 °F 31.2 °F 30.2 °F 70% 29.91 in 10.0 mi West 13.8 mph - N/A   Clear
1:34 PM 41.0 °F 33.5 °F 30.2 °F 65% 29.91 in 10.0 mi WNW 13.8 mph - N/A   Clear
1:54 PM 41.0 °F 33.1 °F 32.0 °F 70% 29.92 in 10.0 mi WNW 15.0 mph 19.6 mph N/A   Clear
2:13 PM 39.2 °F 31.2 °F 32.0 °F 75% 29.92 in 10.0 mi WNW 13.8 mph - N/A   Clear
2:33 PM 39.2 °F 31.6 °F 32.0 °F 75% 29.92 in 10.0 mi West 12.7 mph - N/A   Clear
2:53 PM 39.2 °F 31.6 °F 32.0 °F 75% 29.92 in 10.0 mi WNW 12.7 mph - N/A   Clear
3:14 PM 39.2 °F 31.6 °F 32.0 °F 75% 29.93 in 10.0 mi WNW 12.7 mph - N/A   Clear
3:33 PM 39.2 °F 32.0 °F 33.8 °F 81% 29.94 in 10.0 mi WNW 11.5 mph - N/A   Clear
3:53 PM 39.2 °F 33.0 °F 32.0 °F 75% 29.94 in 10.0 mi WNW 9.2 mph - N/A   Clear
4:13 PM 37.4 °F 30.8 °F 33.8 °F 87% 29.95 in 10.0 mi WNW 9.2 mph - N/A   Clear
4:33 PM 37.4 °F 30.3 °F 32.0 °F 81% 29.95 in 10.0 mi WNW 10.4 mph - N/A   Clear
4:53 PM 37.4 °F 30.8 °F 32.0 °F 81% 29.96 in 10.0 mi WNW 9.2 mph - N/A   Clear
5:13 PM 37.4 °F 31.4 °F 32.0 °F 81% 29.96 in 10.0 mi West 8.1 mph - N/A   Clear
5:34 PM 35.6 °F 29.9 °F 30.2 °F 81% 29.97 in 10.0 mi West 6.9 mph - N/A   Clear
5:53 PM 35.6 °F 29.9 °F 30.2 °F 81% 29.97 in 10.0 mi West 6.9 mph - N/A   Clear
6:14 PM 33.8 °F 30.8 °F 30.2 °F 87% 29.98 in 10.0 mi WNW 3.5 mph - N/A   Clear
6:33 PM 32.0 °F 27.5 °F 30.2 °F 93% 29.99 in 10.0 mi WNW 4.6 mph - N/A   Clear
6:53 PM 30.2 °F 25.4 °F 28.4 °F 93% 29.99 in 10.0 mi West 4.6 mph - N/A   Clear
7:14 PM 30.2 °F 24.3 °F 28.4 °F 93% 29.99 in 10.0 mi WNW 5.8 mph - N/A   Clear
7:33 PM 28.4 °F 24.6 °F 26.6 °F 93% 29.99 in 10.0 mi WSW 3.5 mph - N/A   Clear
7:53 PM 32.0 °F 28.7 °F 30.2 °F 93% 29.99 in 10.0 mi SW 3.5 mph - N/A   Clear
8:13 PM 30.2 °F 26.7 °F 28.4 °F 93% 29.99 in 10.0 mi SSW 3.5 mph - N/A   Clear
8:33 PM 30.2 °F 24.3 °F 28.4 °F 93% 29.99 in 10.0 mi SW 5.8 mph - N/A   Clear
8:53 PM 28.4 °F 21.2 °F 26.6 °F 93% 29.99 in 10.0 mi SW 6.9 mph - N/A   Clear
9:14 PM 30.2 °F 24.3 °F 28.4 °F 93% 29.98 in 10.0 mi SW 5.8 mph - N/A   Clear
9:34 PM 28.4 °F 23.3 °F 26.6 °F 93% 29.99 in 10.0 mi WSW 4.6 mph - N/A   Clear
9:53 PM 26.6 °F - 24.8 °F 93% 29.97 in 10.0 mi Calm Calm - N/A   Clear
10:13 PM 28.4 °F 24.6 °F 26.6 °F 93% 29.96 in 7.0 mi SW 3.5 mph - N/A   Clear
10:33 PM 28.4 °F 23.3 °F 28.4 °F 100% 29.95 in 10.0 mi SSW 4.6 mph - N/A   Clear
10:54 PM 28.4 °F 24.6 °F 28.4 °F 100% 29.95 in 10.0 mi South 3.5 mph - N/A   Clear
11:13 PM 26.6 °F 21.2 °F 24.8 °F 93% 29.94 in 10.0 mi South 4.6 mph - N/A   Clear
11:34 PM 24.8 °F - 23.0 °F 93% 29.93 in 10.0 mi Calm Calm - N/A   Clear
11:53 PM 26.6 °F 21.2 °F 24.8 °F 93% 29.92 in 10.0 mi SSE 4.6 mph - N/A   Clear